When you browse on this site, cookies collect data to enhance your experience and personalize the content and advertising you see.
Visit our Privacy Policy to learn more. By continuing to use the site, you agree to this use of cookies and data.
  • en Suisse
  • Liste des pays
  • À 7 jours
  • Température de l'eau
  • Carte satellitaire
  • Carte météo
  • Widgets météo
  • user-avatar
    Se connecter

    Météo par heure à Plateaux

    Ce jour, 21 Juillet, Dimanche

    Heure Température Précipitation Vent Pression Humidité
    00:00 +27°C° 0.2 mm 1 m/s 723 mmHg 66%
    01:00 +26°C° 0 mm 2 m/s 723 mmHg 72%
    02:00 +26°C° 0 mm 2 m/s 722 mmHg 73%
    03:00 +25°C° 0 mm 2 m/s 722 mmHg 75%
    04:00 +25°C° 0 mm 2 m/s 722 mmHg 76%
    05:00 +25°C° 0 mm 2 m/s 722 mmHg 75%
    06:00 +25°C° 0 mm 2 m/s 723 mmHg 74%
    07:00 +25°C° 0 mm 2 m/s 723 mmHg 73%
    08:00 +27°C° 0 mm 2 m/s 723 mmHg 65%
    09:00 +29°C° 0 mm 2 m/s 723 mmHg 57%
    10:00 +31°C° 0 mm 2 m/s 724 mmHg 49%
    11:00 +34°C° 0 mm 2 m/s 723 mmHg 44%
    12:00 +35°C° 0 mm 2 m/s 723 mmHg 40%
    13:00 +35°C° 0 mm 1 m/s 722 mmHg 35%
    14:00 +34°C° 0 mm 1 m/s 721 mmHg 37%
    15:00 +34°C° 0 mm 1 m/s 720 mmHg 39%
    16:00 +33°C° 0 mm 1 m/s 719 mmHg 42%
    17:00 +32°C° 0 mm 1 m/s 720 mmHg 43%
    18:00 +32°C° 0 mm 1 m/s 720 mmHg 44%
    19:00 +29°C° 0 mm 0 m/s 720 mmHg 46%
    20:00 +30°C° 0 mm 1 m/s 721 mmHg 47%
    21:00 +30°C° 0 mm 1 m/s 721 mmHg 48%
    22:00 +30°C° 0 mm 1 m/s 722 mmHg 49%
    23:00 +29°C° 0 mm 1 m/s 722 mmHg 51%

    Demain, 22 Juillet, Lundi

    Heure Température Précipitation Vent Pression Humidité
    00:00 +29°C° 0 mm 1 m/s 721 mmHg 53%
    01:00 +28°C° 0 mm 1 m/s 721 mmHg 56%
    02:00 +27°C° 0 mm 2 m/s 721 mmHg 58%
    03:00 +27°C° 0 mm 2 m/s 721 mmHg 61%
    04:00 +26°C° 0 mm 2 m/s 721 mmHg 64%
    05:00 +26°C° 0 mm 2 m/s 721 mmHg 66%
    06:00 +26°C° 0 mm 3 m/s 722 mmHg 67%
    07:00 +25°C° 0 mm 3 m/s 722 mmHg 69%
    08:00 +27°C° 0 mm 3 m/s 723 mmHg 64%
    09:00 +28°C° 0 mm 3 m/s 723 mmHg 59%
    10:00 +30°C° 0 mm 3 m/s 723 mmHg 54%
    11:00 +31°C° 0 mm 3 m/s 723 mmHg 49%
    12:00 +34°C° 0 mm 3 m/s 722 mmHg 43%
    13:00 +35°C° 0 mm 2 m/s 721 mmHg 38%
    14:00 +35°C° 0 mm 2 m/s 720 mmHg 37%
    15:00 +36°C° 0 mm 2 m/s 720 mmHg 35%
    16:00 +36°C° 0 mm 2 m/s 719 mmHg 34%
    17:00 +34°C° 0 mm 2 m/s 719 mmHg 37%
    18:00 +32°C° 0 mm 2 m/s 720 mmHg 41%
    19:00 +31°C° 0 mm 2 m/s 720 mmHg 44%
    20:00 +30°C° 0 mm 2 m/s 720 mmHg 47%
    21:00 +29°C° 0 mm 3 m/s 721 mmHg 50%
    22:00 +29°C° 0 mm 3 m/s 721 mmHg 53%
    23:00 +28°C° 0 mm 3 m/s 721 mmHg 55%

    Après-demain, 23 Juillet, Mardi

    Heure Température Précipitation Vent Pression Humidité
    00:00 +27°C° 0 mm 3 m/s 721 mmHg 58%
    01:00 +27°C° 0 mm 2 m/s 721 mmHg 60%
    02:00 +26°C° 0 mm 2 m/s 721 mmHg 62%
    03:00 +26°C° 0 mm 3 m/s 721 mmHg 65%
    04:00 +25°C° 0 mm 3 m/s 721 mmHg 67%
    05:00 +25°C° 0 mm 3 m/s 721 mmHg 68%
    06:00 +25°C° 0 mm 3 m/s 722 mmHg 69%
    07:00 +25°C° 0 mm 3 m/s 723 mmHg 70%
    08:00 +26°C° 0 mm 3 m/s 723 mmHg 63%
    09:00 +28°C° 0 mm 3 m/s 723 mmHg 56%
    10:00 +30°C° 0 mm 3 m/s 724 mmHg 49%
    11:00 +33°C° 0 mm 3 m/s 723 mmHg 45%
    12:00 +34°C° 0 mm 3 m/s 722 mmHg 40%
    13:00 +35°C° 0 mm 3 m/s 721 mmHg 35%
    14:00 +36°C° 0 mm 2 m/s 721 mmHg 33%
    15:00 +36°C° 0 mm 2 m/s 720 mmHg 31%
    16:00 +36°C° 0 mm 2 m/s 719 mmHg 29%
    17:00 +34°C° 0 mm 1 m/s 719 mmHg 33%
    18:00 +32°C° 0 mm 1 m/s 720 mmHg 36%
    19:00 +31°C° 0 mm 1 m/s 720 mmHg 40%
    20:00 +30°C° 0 mm 1 m/s 720 mmHg 42%
    21:00 +29°C° 0 mm 1 m/s 721 mmHg 43%
    22:00 +29°C° 0 mm 2 m/s 721 mmHg 44%
    23:00 +28°C° 0 mm 1 m/s 721 mmHg 45%

    24 Juillet, Mercredi

    Heure Température Précipitation Vent Pression Humidité
    00:00 +27°C° 0 mm 1 m/s 721 mmHg 46%
    01:00 +27°C° 0 mm 1 m/s 721 mmHg 48%
    02:00 +26°C° 0 mm 1 m/s 720 mmHg 49%
    03:00 +26°C° 0 mm 1 m/s 720 mmHg 50%
    04:00 +25°C° 0 mm 2 m/s 720 mmHg 51%
    05:00 +25°C° 0 mm 2 m/s 721 mmHg 51%
    06:00 +25°C° 0 mm 2 m/s 721 mmHg 52%
    07:00 +25°C° 0 mm 2 m/s 722 mmHg 53%
    08:00 +27°C° 0 mm 2 m/s 722 mmHg 48%
    09:00 +29°C° 0 mm 3 m/s 722 mmHg 44%
    10:00 +31°C° 0 mm 3 m/s 722 mmHg 39%
    11:00 +33°C° 0 mm 3 m/s 722 mmHg 36%
    12:00 +34°C° 0 mm 3 m/s 721 mmHg 34%
    13:00 +35°C° 0 mm 2 m/s 720 mmHg 32%
    14:00 +36°C° 0 mm 2 m/s 720 mmHg 30%
    15:00 +36°C° 0 mm 2 m/s 719 mmHg 29%
    16:00 +35°C° 0 mm 1 m/s 719 mmHg 28%
    17:00 +34°C° 0 mm 1 m/s 719 mmHg 31%
    18:00 +32°C° 0 mm 1 m/s 719 mmHg 34%
    19:00 +31°C° 0 mm 1 m/s 719 mmHg 38%
    20:00 +30°C° 0 mm 1 m/s 720 mmHg 40%
    21:00 +30°C° 0 mm 1 m/s 720 mmHg 42%
    22:00 +29°C° 0 mm 1 m/s 721 mmHg 45%
    23:00 +28°C° 0 mm 1 m/s 721 mmHg 46%

    25 Juillet, Jeudi

    Heure Température Précipitation Vent Pression Humidité
    00:00 +28°C° 0 mm 2 m/s 721 mmHg 48%
    01:00 +27°C° 0 mm 2 m/s 720 mmHg 49%
    02:00 +27°C° 0 mm 2 m/s 721 mmHg 50%
    03:00 +26°C° 0 mm 2 m/s 721 mmHg 51%
    04:00 +26°C° 0 mm 2 m/s 721 mmHg 52%
    05:00 +26°C° 0 mm 2 m/s 721 mmHg 52%
    06:00 +25°C° 0 mm 3 m/s 722 mmHg 52%
    07:00 +25°C° 0 mm 3 m/s 722 mmHg 53%
    08:00 +27°C° 0 mm 3 m/s 723 mmHg 49%
    09:00 +29°C° 0 mm 3 m/s 723 mmHg 45%
    10:00 +31°C° 0 mm 3 m/s 723 mmHg 41%
    11:00 +33°C° 0 mm 3 m/s 722 mmHg 38%
    12:00 +34°C° 0 mm 3 m/s 722 mmHg 35%
    13:00 +35°C° 0 mm 2 m/s 721 mmHg 32%
    14:00 +36°C° 0 mm 2 m/s 721 mmHg 30%
    15:00 +36°C° 0 mm 2 m/s 720 mmHg 29%
    16:00 +36°C° 0 mm 1 m/s 719 mmHg 27%
    17:00 +35°C° 0 mm 2 m/s 719 mmHg 30%
    18:00 +34°C° 0 mm 2 m/s 720 mmHg 33%
    19:00 +31°C° 0 mm 2 m/s 720 mmHg 36%
    20:00 +30°C° 0 mm 2 m/s 720 mmHg 37%
    21:00 +30°C° 0 mm 2 m/s 721 mmHg 37%
    22:00 +29°C° 0 mm 2 m/s 721 mmHg 38%
    23:00 +29°C° 0 mm 2 m/s 721 mmHg 40%

    26 Juillet, Vendredi

    Heure Température Précipitation Vent Pression Humidité
    00:00 +28°C° 0 mm 2 m/s 721 mmHg 42%
    01:00 +27°C° 0 mm 2 m/s 721 mmHg 44%
    02:00 +27°C° 0 mm 2 m/s 721 mmHg 47%
    03:00 +26°C° 0 mm 2 m/s 721 mmHg 50%
    04:00 +26°C° 0 mm 2 m/s 721 mmHg 52%
    05:00 +25°C° 0 mm 3 m/s 721 mmHg 54%
    06:00 +25°C° 0 mm 3 m/s 722 mmHg 56%
    07:00 +25°C° 0 mm 3 m/s 722 mmHg 57%
    08:00 +27°C° 0 mm 3 m/s 722 mmHg 51%
    09:00 +29°C° 0 mm 3 m/s 723 mmHg 46%
    10:00 +30°C° 0 mm 3 m/s 723 mmHg 40%
    11:00 +33°C° 0 mm 3 m/s 722 mmHg 36%
    12:00 +34°C° 0 mm 3 m/s 722 mmHg 33%
    13:00 +36°C° 0 mm 3 m/s 721 mmHg 29%
    14:00 +36°C° 0 mm 2 m/s 720 mmHg 28%
    15:00 +36°C° 0 mm 2 m/s 720 mmHg 27%
    16:00 +37°C° 0 mm 2 m/s 719 mmHg 26%
    17:00 +35°C° 0 mm 2 m/s 719 mmHg 29%
    18:00 +34°C° 0 mm 2 m/s 719 mmHg 32%
    19:00 +31°C° 0 mm 1 m/s 719 mmHg 35%
    20:00 +30°C° 0 mm 2 m/s 720 mmHg 37%
    21:00 +30°C° 0 mm 2 m/s 720 mmHg 38%
    22:00 +29°C° 0 mm 2 m/s 721 mmHg 40%
    23:00 +28°C° 0 mm 2 m/s 720 mmHg 42%
    Voir plus